Regional Weather Roundup
Issued by NWS Northern Indiana

Home | Current Version | Previous Version | Text Only | Print | Product List | Glossary Off
Versions: 1 2 3 4 5 6 7 8 9 10 11 12 13 14 15 16 17 18 19 20 21 22 23 24 25 26 27 28 29 30 31 32 33 34 35 36 37 38 39 40 41 42 43 44 45 46 47 48 49 50

000
ASUS43 KIWX 242100
RWRIWX

KIWX WEATHER ROUNDUP
NATIONAL WEATHER SERVICE NORTHERN INDIANA
500 PM EDT WED MAY 24 2017

NOTE: "FAIR" INDICATES FEW OR NO CLOUDS BELOW 12,000 FEET WITH NO
SIGNIFICANT WEATHER AND/OR OBSTRUCTIONS TO VISIBILITY.

* THESE STATIONS ARE NOT UNDER NWS QUALITY CONTROL. THEY ALSO MAY NOT
  REPORT WEATHER SUCH AS PRECIPITATION OR FOG.

INZ001>027-242200-
NORTHERN INDIANA

CITY           SKY/WX    TMP DP  RH WIND       PRES   REMARKS
GARY*          LGT RAIN  55  52  88 NW14      29.55R
VALPARAISO     RAIN      59  55  88 NW8       29.52R FOG
MICHIGAN CITY* LGT SNOW  55  55 100 NW3       29.52S
SOUTH BEND     CLOUDY    60  59  96 NW8       29.49S
ELKHART*       CLOUDY    70  54  56 E12       29.48R THUNDER
GOSHEN         LGT RAIN  62  55  77 E21G31    29.48R
MONTICELLO*    LGT RAIN  60  55  82 NW6       29.48F
ANGOLA*        CLOUDY    61  48  63 E8        29.50S
FORT WAYNE     LGT RAIN  61  58  90 NE14      29.46R

$$
INZ028>050-242200-
CENTRAL INDIANA

CITY           SKY/WX    TMP DP  RH WIND       PRES   REMARKS
LAFAYETTE      LGT RAIN  59  56  89 N7        29.48F
KOKOMO*        LGT RAIN  59  56  89 NW9       29.47F
MUNCIE*        LGT RAIN  61  58  90 N9        29.45S FOG
INDIANAPOLIS   LGT RAIN  59  55  87 N13       29.45S

$$
MIZ043>046-050>051-056>058-064>065-071>073-077>080-242200-
SOUTHWEST LOWER MICHIGAN

CITY           SKY/WX    TMP DP  RH WIND       PRES   REMARKS
BATTLE CREEK   TSTM      60  59  96 E8        29.53S
BENTON HARBOR  CLOUDY    59  54  83 VRB6      29.49S
COLDWATER*     LGT RAIN  61  59  92 E5        29.52S
HILLSDALE*     LGT RAIN  59  54  82 E7        29.51F
HOLLAND        CLOUDY    70  56  61 E14       29.52S
GRAND RAPIDS   CLOUDY    67  57  70 NE15      29.53S
KALAMAZOO      TSTM      61  56  83 E9G18     29.52R
STURGIS*       RAIN      60  58  95 E8        29.51R
THREE RIVERS*  LGT RAIN  62  55  78 E8G17     29.52R

$$
OHZ001>008-015>018-024>025-242200-
NORTHWEST OHIO

CITY           SKY/WX    TMP DP  RH WIND       PRES   REMARKS
DEFIANCE       CLOUDY    60  57  89 N12       29.46F
FINDLAY        LGT RAIN  64  59  83 E12       29.45F
TOLEDO EXPRESS LGT RAIN  60  58  92 E18G26    29.49F FOG
TOLEDO METCALF CLOUDY    61  59  93 NE15      29.51F FOG
LIMA           CLOUDY    68  59  73 E15       29.43F

$$
AND FOR LAKE MICHIGAN COASTAL AND OPEN LAKE BUOY OBSERVATIONS

STATION/POSITION TEMP    WIND        PRES    VSBY  WAVE
                 AIR SEA DIR/SP/G                  HT/PER
                 (F)     (DEG/KT/KT) (MB)    (MI)  (FT/S)
CALUMET HARBOR    53     330/ 11/ 19 1000.2R
MICHIGAN CITY     55      80/  3/  4   N/A
BURNS HARBOR      51     300/  6/  8 1000.7S
SOUTH LAKE BUOY   48 45   10/ 19/ 21 1000.2          4/ 5
4 MI NW BRIDGMAN  55 56   40/ 10/ 14  999.2F         4/ 4
MICHIGAN CITY     52 54   20/  8/ 14   N/A           4/ 5

$$
&&



USA.gov is the U.S. government's official web portal to all federal, state and local government web resources and services.